Last 6 Hours

Alpine-Summit 8643' (Ward Mt.)

15 Minute Data | America/Los_Angeles
as of 5/24/19 2:33 PM PDT
Date & Time Temp (°F) RH (%) Dew Pt (°F) Wet Bulb (°F) Wind Dir (°) Wind Spd (mph) Wind Gust (mph) WindChill (°F)
5/24/19 - 1430 41.0 92 38.9 39.9 SW | 221 14.2 21.4 34.3
5/24/19 - 1415 42.4 89 39.5 40.8 SW | 220 14.9 21.5 37.7
5/24/19 - 1400 45.0 76 37.9 41.2 SSW | 206 12.1 18.9 39.1
5/24/19 - 1345 44.3 80 38.5 41.2 S | 191 13.1 16.9 39.8
5/24/19 - 1330 47.3 72 38.9 42.8 SW | 220 14.4 19.7 42.7
5/24/19 - 1315 49.7 53 33.4 41.4 W | 275 8.3 15.3 47.0
5/24/19 - 1300 48.9 58 34.6 41.5 W | 268 10.9 17.8 43.9
5/24/19 - 1245 48.9 56 33.8 41.2 WSW | 247 7.2 12.6 44.8
5/24/19 - 1230 45.9 62 33.4 39.6 W | 272 7.8 15.3 42.7
5/24/19 - 1215 47.5 58 33.5 40.4 NNW | 337 2.6 14.9 46.9
5/24/19 - 1200 48.5 58 34.4 41.3 NNE | 21 0.7 2.7 48.8
5/24/19 - 1145 48.4 56 33.5 40.8 NNW | 329 3.5 9.5 46.3
5/24/19 - 1130 48.6 55 33.3 40.9 NNE | 16 0.6 3.5 49.1
5/24/19 - 1115 48.4 58 34.4 41.2 NE | 41 6.9 13.2 46.1
5/24/19 - 1100 48.9 59 35.1 41.8 NE | 53 9.8 17.6 43.7
5/24/19 - 1045 47.1 64 35.6 41.2 NNE | 33 6.9 11.6 43.0
5/24/19 - 1030 45.7 67 35.3 40.4 ENE | 61 10.5 16.0 41.7
5/24/19 - 1015 46.3 67 36.1 41.1 NE | 56 11.1 15.8 40.0
5/24/19 - 1000 44.8 71 35.9 40.2 ENE | 60 13.7 19.8 37.9
5/24/19 - 0945 44.1 73 36.2 40.0 ENE | 59 15.1 18.1 36.8
5/24/19 - 0930 43.5 75 36.2 39.8 ENE | 60 15.0 18.3 35.6
5/24/19 - 0915 42.4 78 36.0 39.1 ENE | 59 15.6 18.9 34.3
5/24/19 - 0900 41.9 80 36.2 39.0 ENE | 59 16.4 19.9 33.0
5/24/19 - 0845 40.8 82 35.8 38.2 ENE | 63 17.6 23.1 31.6
Max 49.7 92 39.5 42.8 - 17.6 23.1 49.1
Avg 45.8 68 35.7 40.6 - 10.4 15.9 41.1
Min 40.8 53 33.3 38.2 - 0.6 2.7 31.6